Regional Weather Roundup
Issued by NWS Glasgow, MT

Home | Current Version | Previous Version | Text Only | Print | Product List | Glossary On
Versions: 1 2 3 4 5 6 7 8 9 10 11 12 13 14 15 16 17 18 19 20 21 22 23 24 25 26 27 28 29 30 31 32 33 34 35 36 37 38 39 40 41 42 43 44 45 46 47 48 49 50
000
ASUS45 KGGW 201015
RWRGGW
HOURLY WEATHER ROUNDUP FOR NORTHEAST MONTANA
NATIONAL WEATHER SERVICE GLASGOW MONTANA
400 AM MDT MON OCT 20 2014

NOTE: "FAIR" INDICATES FEW OR NO CLOUDS BELOW 12,000 FEET WITH NO
SIGNIFICANT WEATHER AND/OR OBSTRUCTIONS TO VISISBILITY.

NORTHEAST MONTANA


CITY           SKY/WX    TMP DP  RH WIND       PRES   REMARKS
GLASGOW        CLEAR     45  36  70 E15       29.89S
PLENTYWOOD       N/A     45  35  68 SE3         N/A
WOLF POINT     CLEAR     38  34  85 NE7       29.93F
JORDAN           N/A     38  32  79 SE5       29.91F
WINNETT          N/A     46  32  58 CALM        N/A
SIDNEY         CLEAR     36  34  93 CALM      30.00S
GLENDIVE       CLEAR     43  34  70 S5        29.99F
MALTA            N/A     48  41  76 CALM        N/A
SCOBEY           N/A     46  35  65 SE8       29.91F

FORT PECK REPORTS


CITY           SKY/WX    TMP DP  RH WIND       PRES   REMARKS
FORT PECK        N/A     55  41  59 SE14        N/A
THE PINES        N/A     54  42  64 S6          N/A

SOUTHEAST MONTANA


CITY           SKY/WX    TMP DP  RH WIND       PRES   REMARKS
BILLINGS       CLEAR     49  32  52 SW16      29.94F
MILES CITY     CLEAR     52  37  56 SE10      29.94F
BAKER          CLEAR     42  34  73 E9        30.01F
LIVINGSTON     CLEAR     37  27  67 CALM      29.99F

CENTRAL MONTANA


CITY           SKY/WX    TMP DP  RH WIND       PRES   REMARKS
HAVRE          CLEAR     38  36  92 E5        29.84F
LEWISTOWN      CLEAR     41  31  67 SE8       29.93F
GREAT FALLS    CLEAR     56  28  34 S15       29.86F
CUT BANK       CLEAR     44  29  55 SE7       29.84F
HELENA         CLEAR     41  33  73 CALM      29.95S
BUTTE          CLEAR     30  25  81 CALM      30.04F
BOZEMAN        CLEAR     35  27  72 CALM      30.01R

WESTERN MONTANA


CITY           SKY/WX    TMP DP  RH WIND       PRES   REMARKS
MISSOULA       CLEAR     35  33  92 CALM      29.94S
KALISPELL      NOT AVBL

NORTH DAKOTA


CITY           SKY/WX    TMP DP  RH WIND       PRES   REMARKS
WILLISTON      CLEAR     34  31  88 CALM      29.99S
DICKINSON      CLEAR     39  34  82 S9        30.01S
MINOT          CLEAR     46  34  62 SW10      30.00S
BISMARCK       MOCLDY    35  34  96 CALM      30.06R

SOUTHERN SASKATCHEWAN


CITY           SKY/WX    TMP DP  RH WIND       PRES   REMARKS
REGINA         CLEAR     39  36  87 E12       29.91F
MOOSE JAW      PTCLDY    43  39  87 S12       29.87
ESTEVAN        CLEAR     39  36  87 SE8       29.97F
SWIFT CURRENT  CLEAR     50  41  71 S16       29.80F



USA.gov is the U.S. government's official web portal to all federal, state and local government web resources and services.